Wind_Speed
9 10 10 11 11 11 12 12 13 13 14 14 14 14 15 15 15 15 15 15 15 15 15 15 15 15 15 15 15 15 16 15 15 15 15 15 15 15 14 14 14 15 16 16
10 10 10 11 12 12 13 13 14 14 15 15 15 15 15 15 16 16 15 16 16 16 16 16 16 16 16 16 16 16 16 17 17 16 16 16 16 15 15 15 15 15 16 16
11 11 11 13 13 13 14 14 14 15 15 15 16 16 16 15 16 17 17 17 17 18 18 18 18 18 17 17 18 18 17 18 18 18 17 17 17 16 16 16 16 17 16 16
13 13 13 14 14 15 15 15 16 16 16 15 16 16 16 17 17 17 18 18 19 19 19 19 19 19 19 19 19 19 19 19 18 18 18 18 17 17 17 17 17 18 18 17
14 14 15 15 15 15 15 15 16 16 16 16 15 17 17 18 18 18 18 19 19 20 20 20 20 20 20 20 20 20 20 19 19 19 20 20 19 19 18 18 18 18 18 18
14 15 15 15 15 15 16 16 16 16 17 16 14 17 19 18 19 18 19 19 19 19 19 20 20 21 21 21 20 21 21 21 21 21 21 21 20 20 20 20 19 19 19 19
15 15 16 16 16 16 15 16 15 16 17 17 16 18 19 18 19 20 20 19 19 20 20 21 21 21 22 22 22 22 22 22 22 23 23 22 21 21 21 21 20 20 20 20
16 16 16 16 17 16 16 16 16 16 16 17 17 20 20 20 20 19 19 20 20 21 21 21 21 21 22 22 23 23 23 23 23 23 23 22 22 23 22 22 22 22 21 20
16 17 16 17 17 17 17 17 17 18 17 17 17 19 21 22 21 20 20 20 21 21 22 21 21 21 22 23 23 23 24 23 23 23 23 23 23 23 23 23 23 22 22 22
15 16 17 16 18 17 17 18 17 17 18 19 18 19 21 22 22 22 22 22 22 22 23 22 22 22 23 23 23 23 24 24 23 23 23 23 24 23 23 24 24 24 23 23
17 17 17 17 17 18 18 17 19 20 20 19 20 20 21 22 23 23 24 23 22 22 23 23 23 23 23 23 23 24 24 24 24 25 24 24 24 24 24 24 24 24 24 25
16 16 17 18 17 19 19 19 19 20 20 21 21 23 22 23 24 24 24 23 22 23 23 23 23 23 24 24 24 25 25 25 25 26 25 25 25 25 25 25 25 25 25 25
16 16 17 18 18 19 20 20 21 21 22 22 23 24 24 25 24 25 25 25 24 24 24 24 24 24 24 24 25 25 25 26 26 26 25 25 25 26 26 25 25 25 25 25
18 18 18 19 19 20 21 21 21 22 23 23 23 24 25 26 26 26 26 26 27 26 25 25 25 24 24 23 24 24 25 26 26 26 26 27 26 26 26 26 26 26 26 26
19 20 20 21 21 21 21 22 22 23 23 24 23 24 26 27 28 28 27 27 27 27 26 26 26 26 25 25 24 24 25 25 26 27 27 27 27 27 27 27 27 27 27 27
21 21 22 22 22 22 22 22 23 23 24 26 26 25 26 27 29 29 29 28 28 28 27 27 26 26 26 26 26 26 26 26 26 27 28 28 28 28 29 29 29 30 30 30
22 22 22 22 22 23 22 22 23 25 26 26 26 26 26 26 27 29 29 29 29 28 29 28 27 26 26 27 27 27 27 28 28 28 28 29 30 30 31 31 31 31 32 32
22 22 23 23 23 24 24 23 24 25 27 27 27 26 26 26 27 28 29 29 29 28 29 29 28 27 27 27 28 28 29 30 30 29 30 30 31 32 32 32 32 32 32 32
22 22 23 23 24 25 25 24 25 26 27 26 26 27 26 26 26 27 28 28 28 28 28 29 29 28 28 28 28 29 29 30 30 31 30 31 31 32 33 33 33 33 33 33
23 23 24 24 25 26 25 24 25 26 26 27 27 27 27 26 27 27 27 28 28 29 29 28 28 28 29 29 30 30 30 30 31 31 31 32 32 33 34 33 33 33 33 33
23 23 24 24 26 27 25 25 25 26 27 27 27 27 27 27 27 27 28 28 28 29 28 27 28 29 29 30 30 30 31 31 31 31 32 32 33 34 34 34 33 33 33 34
24 24 24 25 26 26 25 26 26 27 27 28 28 28 29 29 29 29 29 28 28 29 28 28 28 29 29 30 30 31 30 31 32 32 32 33 33 34 34 34 34 33 33 34
24 24 24 25 26 26 26 26 27 27 27 27 28 29 29 29 29 30 30 29 28 28 29 28 28 29 29 30 30 30 31 31 31 32 33 33 33 33 34 34 34 33 34 34
24 24 25 25 25 26 26 26 27 28 28 28 28 28 28 28 28 29 29 28 28 28 28 27 28 28 29 29 30 30 30 31 32 32 32 32 33 33 33 33 33 33 33 33
24 24 25 24 24 25 26 27 27 27 28 28 28 28 28 28 28 28 29 29 29 28 28 28 28 29 30 30 30 31 31 31 32 32 32 32 32 33 33 33 32 33 33 33
24 25 25 24 24 24 25 26 26 26 27 27 27 27 27 27 28 28 29 29 29 29 29 28 29 30 30 30 30 31 31 32 32 31 32 32 33 33 32 33 33 34 34 34
Wind_Direction
261 256 254 254 253 252 253 256 261 265 269 270 271 273 274 275 277 278 279 280 279 277 275 274 274 274 273 274 278 280 279 278 278 278 279 280 280 281 280 278 278 277 276 275
260 256 257 257 250 248 251 255 259 262 263 266 271 274 273 272 277 279 280 281 281 280 277 275 273 272 273 274 275 276 274 276 277 277 277 275 279 281 281 281 279 279 278 274
263 257 254 254 251 251 251 257 262 263 262 269 274 273 272 272 276 280 280 280 279 279 277 275 274 273 272 273 273 274 274 275 277 276 274 272 273 278 280 280 279 277 277 276
257 256 254 253 254 252 254 257 262 264 266 272 275 276 275 278 277 278 279 278 277 277 277 276 273 273 271 271 272 274 275 273 274 272 273 273 273 275 277 279 277 277 277 277
258 256 254 253 253 256 257 260 264 264 268 271 273 276 276 279 280 280 279 278 278 278 277 277 276 274 272 272 273 275 274 272 272 271 271 271 271 274 275 276 277 278 278 277
261 259 257 256 255 258 258 257 261 264 270 271 271 274 274 278 279 279 279 280 281 280 280 279 279 277 274 272 273 273 273 273 271 272 271 269 269 271 272 274 274 276 277 276
266 260 258 257 256 258 255 256 260 266 270 272 273 271 275 278 279 281 282 283 282 281 283 281 279 277 275 274 273 273 272 272 271 271 272 269 269 270 272 271 272 274 274 275
268 264 259 259 258 258 255 254 258 265 269 273 271 270 277 280 282 281 283 282 281 282 283 283 281 278 275 274 273 273 273 272 271 271 271 270 270 271 272 273 272 273 273 272
271 270 263 262 262 260 257 255 259 263 266 267 268 273 279 281 283 283 281 281 283 282 282 282 281 279 278 275 274 274 273 272 271 270 271 271 271 271 272 273 273 275 273 271
267 269 269 266 264 261 261 259 259 261 264 267 267 269 276 282 283 283 283 283 284 284 282 280 280 280 281 277 276 275 272 271 272 273 273 271 271 271 270 271 274 275 271 272
268 267 268 268 265 264 262 260 261 262 266 269 272 272 273 277 280 282 284 284 284 284 284 283 281 280 279 278 277 274 271 270 270 271 271 271 270 271 269 269 272 272 270 271
269 266 269 270 268 267 266 263 263 263 264 267 271 273 275 275 276 278 281 284 284 285 285 284 283 282 280 278 276 274 270 268 269 269 269 270 269 270 270 269 269 269 269 270
269 267 269 269 268 269 269 266 263 265 267 267 269 273 274 275 276 277 279 281 283 286 287 288 285 284 283 279 276 274 271 269 268 268 268 269 269 268 269 269 268 268 269 269
268 267 266 267 268 268 268 268 266 267 269 267 268 271 272 273 276 278 279 282 283 284 286 287 287 285 283 280 278 275 273 271 269 269 268 268 269 269 269 269 269 268 269 270
270 267 263 266 267 265 265 268 270 269 269 270 271 270 271 273 276 278 278 280 281 283 284 284 285 283 281 279 279 278 276 274 271 270 269 269 268 269 269 269 269 269 270 270
273 271 267 264 268 268 266 265 268 271 272 273 274 274 274 273 275 277 277 277 278 280 281 281 281 281 280 280 279 278 277 275 273 272 271 269 268 268 270 270 270 269 270 271
272 272 270 266 266 269 267 268 270 271 273 277 276 277 277 274 274 276 278 279 279 280 280 281 280 279 279 278 278 278 277 276 276 274 273 270 269 270 271 271 270 270 270 271
272 272 273 271 269 267 271 272 273 274 275 277 277 278 279 277 277 277 278 278 279 279 279 278 279 279 278 278 278 278 277 276 276 275 274 272 270 270 271 271 271 271 270 270
271 272 272 271 271 271 271 273 275 275 275 278 279 280 282 280 278 278 277 279 280 279 279 277 276 277 278 278 278 277 277 276 276 276 276 274 271 270 271 272 271 271 270 269
270 271 272 271 270 271 274 276 276 276 275 278 281 282 283 284 281 280 280 280 280 281 281 278 277 277 277 278 278 278 278 278 277 277 276 275 273 272 272 272 272 271 270 269
271 272 273 273 272 273 274 275 276 276 278 280 283 284 284 284 285 284 283 282 282 281 281 280 279 278 278 278 278 278 280 279 279 278 276 276 275 274 273 274 273 272 270 270
272 271 272 274 274 274 276 275 276 278 279 280 282 284 286 286 285 285 285 284 284 282 280 280 280 279 279 280 279 279 279 279 279 278 277 276 276 276 275 276 275 272 271 270
273 272 272 274 274 275 276 276 276 277 280 282 283 283 286 287 287 286 286 286 286 286 282 280 280 280 281 281 280 280 279 280 281 279 278 278 276 277 276 275 274 272 272 271
273 272 273 274 275 275 275 276 277 278 281 283 284 284 284 286 286 286 286 287 287 287 284 282 281 281 281 281 280 281 281 281 281 281 279 278 277 276 276 277 276 274 273 271
273 273 273 274 275 274 273 274 276 279 281 282 284 285 284 284 284 285 286 287 287 287 285 283 282 282 281 281 281 281 280 281 281 282 281 279 277 276 276 275 275 274 273 271
274 274 273 274 275 275 274 274 276 279 281 282 282 283 284 286 286 286 284 284 285 285 286 284 284 284 284 283 284 283 281 282 282 282 280 278 277 277 277 276 276 275 273 272
Height
5834 5835 5835 5837 5838 5839 5840 5841 5842 5843 5843 5844 5844 5844 5845 5844 5845 5845 5845 5845 5845 5845 5845 5845 5845 5845 5844 5844 5845 5845 5844 5844 5844 5844 5844 5844 5844 5844 5844 5844 5844 5844 5844 5844
5832 5832 5833 5834 5835 5836 5837 5838 5839 5840 5840 5841 5841 5841 5841 5841 5841 5842 5842 5842 5842 5842 5842 5842 5842 5842 5841 5841 5841 5841 5841 5841 5841 5841 5841 5841 5841 5841 5841 5841 5841 5841 5841 5841
5829 5830 5830 5831 5832 5833 5834 5835 5836 5837 5837 5837 5838 5838 5838 5838 5838 5838 5838 5838 5838 5838 5838 5838 5838 5838 5838 5838 5838 5837 5837 5837 5837 5837 5837 5837 5837 5837 5837 5837 5837 5837 5837 5837
5825 5826 5827 5827 5828 5829 5830 5832 5832 5833 5833 5834 5835 5834 5834 5834 5834 5834 5834 5834 5834 5834 5833 5833 5833 5833 5833 5834 5833 5833 5833 5833 5833 5833 5833 5833 5833 5834 5834 5833 5833 5833 5833 5834
5821 5822 5823 5824 5825 5826 5827 5828 5828 5829 5829 5830 5830 5831 5831 5830 5830 5830 5830 5830 5829 5829 5829 5828 5828 5829 5829 5829 5829 5828 5828 5828 5828 5828 5828 5828 5829 5829 5829 5829 5829 5829 5829 5829
5818 5818 5819 5820 5821 5822 5823 5824 5825 5825 5826 5826 5827 5827 5826 5826 5826 5826 5825 5825 5825 5825 5824 5823 5823 5823 5823 5824 5824 5823 5823 5823 5823 5823 5823 5823 5823 5824 5824 5824 5824 5824 5825 5825
5814 5815 5815 5816 5817 5818 5819 5821 5821 5821 5822 5823 5823 5822 5823 5822 5822 5822 5821 5820 5820 5820 5820 5819 5818 5818 5818 5818 5818 5818 5818 5818 5818 5818 5818 5818 5818 5818 5818 5819 5819 5820 5820 5820
5810 5811 5812 5812 5813 5814 5815 5816 5818 5818 5818 5819 5819 5818 5819 5817 5818 5817 5816 5816 5815 5815 5814 5813 5813 5813 5812 5812 5812 5812 5812 5812 5812 5812 5812 5812 5812 5812 5812 5813 5813 5814 5814 5815
5806 5807 5808 5808 5809 5810 5811 5811 5813 5813 5813 5814 5815 5815 5814 5813 5813 5812 5812 5811 5810 5810 5809 5808 5807 5807 5806 5806 5806 5806 5806 5806 5806 5806 5806 5806 5806 5806 5807 5807 5808 5808 5808 5809
5802 5802 5803 5804 5804 5805 5807 5807 5808 5808 5809 5809 5810 5810 5809 5808 5807 5807 5806 5806 5805 5804 5803 5802 5802 5801 5800 5799 5799 5799 5799 5800 5800 5800 5800 5800 5800 5800 5801 5801 5801 5801 5802 5803
5798 5798 5799 5800 5800 5800 5801 5803 5802 5803 5804 5805 5805 5807 5804 5803 5802 5802 5801 5800 5799 5798 5797 5796 5795 5795 5794 5793 5793 5793 5793 5793 5793 5793 5793 5793 5794 5794 5794 5794 5794 5795 5796 5796
5794 5794 5794 5795 5795 5795 5796 5797 5798 5799 5799 5799 5799 5801 5798 5798 5797 5796 5795 5794 5793 5792 5791 5790 5789 5788 5787 5786 5786 5786 5786 5786 5787 5786 5786 5787 5787 5787 5787 5787 5788 5788 5789 5789
5789 5790 5790 5790 5792 5791 5791 5792 5792 5792 5792 5792 5793 5795 5792 5791 5790 5790 5789 5788 5787 5785 5784 5783 5782 5781 5780 5780 5779 5779 5779 5779 5779 5779 5780 5779 5779 5780 5780 5780 5781 5781 5782 5782
5785 5785 5786 5786 5785 5785 5785 5786 5786 5787 5786 5786 5787 5787 5786 5785 5784 5783 5783 5782 5780 5779 5778 5776 5775 5774 5773 5772 5772 5771 5771 5771 5772 5772 5772 5772 5772 5773 5773 5773 5773 5774 5774 5775
5780 5780 5780 5779 5780 5780 5780 5780 5780 5780 5780 5780 5780 5780 5779 5778 5777 5777 5776 5775 5774 5773 5771 5770 5768 5767 5766 5765 5765 5764 5763 5763 5764 5764 5764 5764 5765 5765 5765 5766 5766 5766 5767 5767
5774 5774 5774 5774 5774 5773 5774 5774 5774 5774 5774 5774 5773 5773 5772 5771 5770 5769 5768 5767 5766 5765 5764 5763 5761 5760 5759 5758 5757 5756 5756 5756 5756 5756 5756 5757 5757 5757 5757 5757 5758 5758 5759 5759
5768 5768 5768 5768 5768 5767 5768 5768 5768 5767 5767 5767 5766 5766 5765 5764 5762 5761 5760 5759 5758 5757 5756 5755 5754 5752 5751 5750 5749 5749 5748 5748 5748 5748 5748 5748 5749 5749 5749 5749 5749 5750 5750 5751
5762 5762 5761 5761 5762 5761 5764 5762 5761 5760 5760 5759 5759 5758 5757 5756 5754 5753 5752 5751 5750 5749 5748 5747 5746 5745 5743 5742 5741 5740 5740 5739 5739 5739 5739 5739 5740 5740 5740 5740 5740 5740 5741 5741
5756 5755 5754 5755 5754 5754 5755 5755 5754 5753 5752 5752 5751 5750 5749 5748 5746 5745 5744 5743 5742 5741 5739 5738 5737 5736 5735 5734 5733 5732 5731 5731 5731 5730 5730 5730 5730 5730 5730 5730 5731 5731 5732 5732
5749 5749 5749 5748 5747 5747 5750 5749 5747 5747 5746 5745 5744 5743 5741 5740 5739 5738 5736 5735 5733 5732 5730 5729 5728 5728 5727 5726 5725 5724 5723 5722 5722 5721 5721 5720 5720 5720 5720 5720 5721 5721 5722 5722
5743 5742 5742 5741 5740 5740 5742 5741 5741 5741 5740 5738 5736 5735 5734 5732 5731 5730 5728 5726 5725 5723 5722 5721 5720 5719 5718 5717 5716 5715 5714 5713 5713 5712 5711 5711 5710 5710 5710 5710 5710 5711 5712 5712
5736 5736 5735 5734 5734 5736 5734 5734 5734 5733 5731 5730 5729 5728 5726 5725 5723 5721 5720 5718 5716 5715 5714 5712 5711 5710 5709 5708 5707 5706 5705 5704 5704 5703 5702 5702 5701 5701 5700 5700 5700 5701 5701 5702
5729 5730 5729 5728 5729 5728 5727 5727 5726 5725 5724 5723 5721 5720 5719 5717 5716 5714 5712 5710 5708 5706 5705 5704 5702 5701 5700 5698 5697 5696 5696 5695 5694 5693 5693 5692 5692 5691 5690 5690 5691 5691 5691 5692
5722 5722 5721 5721 5721 5720 5720 5719 5718 5717 5716 5715 5714 5713 5711 5710 5708 5706 5704 5702 5700 5698 5696 5695 5694 5692 5691 5690 5688 5687 5686 5685 5685 5684 5683 5682 5682 5681 5681 5680 5680 5681 5681 5681
5716 5715 5714 5714 5714 5713 5712 5711 5711 5710 5709 5708 5706 5705 5703 5701 5700 5698 5696 5694 5692 5690 5688 5687 5685 5684 5682 5681 5680 5679 5677 5676 5675 5674 5673 5672 5671 5671 5671 5670 5670 5670 5671 5671
5709 5708 5707 5707 5707 5706 5705 5704 5703 5703 5702 5700 5699 5697 5695 5694 5692 5690 5688 5686 5684 5682 5680 5678 5677 5675 5674 5672 5671 5669 5668 5666 5665 5664 5663 5662 5661 5661 5660 5660 5660 5660 5660 5660